Flag for Syria Weather past 2 weeks in Aleppo, Syria

Now
78 °F

Passing clouds.


Feels Like: 80 °F
Forecast: 64 / 87 °F
Wind: 8 mph from Northwest

Location: Iskenderun

Current Time: Sep 19, 2014 at 7:06:08 AM

Latest Report: Sep 19, 2014 at 3:00 AM


Visibility: 9 mi

Pressure: 29.90 "Hg

Humidity: 66%

Dew point: 65 °F

Location of AleppoLocation

Historic Weather in Aleppo — Graph

°F

Aleppo temperature yesterday

Maximum temperature yesterday: 82 °F (at 4:00 PM)
Minimum temperature yesterday: 72 °F (at 11:00 AM)
Average temperature yesterday: 78 °F

Past Weeks' High & Low Weather Summary

 TemperatureHumidityPressure
High88 °F (Sep 5, 2:00 PM)89% (Sep 14, 4:00 AM)29.92 "Hg (Sep 14, 4:00 AM)
Low66 °F (Sep 15, 9:00 PM)41% (Sep 15, 8:00 PM)29.66 "Hg (Sep 6, 4:00 AM)
Average81 °F65%29.81 "Hg
* Reported Sep 4 3:00 AM — Sep 19 3:00 AM, Aleppo, Weather by CustomWeather, © 2014

Note: Actual official high and low records may vary slightly from our data, if they occured in-between our weather recording intervals... More about our weather records

Advertising

Aleppo weather history for previous 24 hours

 ConditionsComfort  
Time TempWeatherWind HumidityBarometerVisibility
3:00 AM
Sep 19
78 °FPassing clouds.8 mph66%29.90 "Hg9 mi
12:00 AM78 °FPassing clouds.1 mph65%29.91 "Hg9 mi
11:00 PM
Sep 18
79 °FPassing clouds.1 mph64%29.91 "Hg9 mi
10:00 PM79 °FPassing clouds.2 mph62%29.91 "Hg12 mi
9:00 PM80 °FPassing clouds.3 mph65%29.91 "Hg9 mi
6:00 PM82 °FScattered clouds.2 mph57%29.88 "Hg9 mi
5:00 PM82 °FScattered clouds.7 mph54%29.87 "Hg9 mi
4:00 PM82 °FScattered clouds.2 mph59%29.85 "Hg9 mi
3:00 PM80 °FThundershowers. Partly sunny.7 mph66%29.87 "Hg9 mi
2:00 PM81 °FThunderstorms. Partly sunny.1 mph52%29.86 "Hg9 mi
1:00 PM80 °FPartly sunny.5 mph60%29.86 "Hg12 mi
12:00 PM76 °FThunderstorms. Scattered clouds.1 mph78%29.88 "Hg12 mi
11:00 AM72 °FThundershowers. Partly sunny.2 mph84%29.88 "Hg6 mi
10:00 AM76 °FThundershowers. Partly sunny.15 mph68%29.87 "Hg9 mi
9:00 AM82 °FPartly sunny.3 mph52%29.81 "Hg9 mi
8:00 AM79 °FPartly sunny.2 mph54%29.81 "Hg9 mi
7:00 AM77 °FThunderstorms. Partly sunny.2 mph59%29.81 "Hg9 mi
Weather by CustomWeather, © 2014

See weather overviewHow to use our weather pages